Beaver, WV

4:59 AM EST on December 08, 2016 (GMT -0500)
Raleigh County Memorial

Weather History for KBKW - October, 2011

Change the Weather History Date:

Tuesday, October 4, 2011

  Actual Average Record
Temperature  
Mean Temperature 49 °F 57 °F  
Max Temperature 54 °F 67 °F 86 °F (1959)
Min Temperature 43 °F 47 °F 23 °F (1974)
Degree Days  
Heating Degree Days 16 9  
Month to date heating degree days 81 34  
Since 1 July heating degree days 158 168  
Cooling Degree Days 0 0  
Month to date cooling degree days 0 2  
Year to date cooling degree days 865 552  
Moisture  
Dew Point 47 °F    
Average Humidity 92    
Maximum Humidity 100    
Minimum Humidity 83    
Precipitation  
Precipitation 0.00 in 0.08 in 1.18 in (1964)
Month to date precipitation 0.55 0.32  
Year to date precipitation 32.17 32.99  
Snow  
Snow 0.00 in - - ()
Month to date snowfall 0.0  
Since 1 September snowfall 0.0  
Snow Depth 0.00 in    
Sea Level Pressure  
Sea Level Pressure 30.27 in    
Wind  
Wind Speed 4 mph (NW)    
Max Wind Speed 12 mph    
Max Gust Speed 14 mph    
Visibility 7 miles    
Events      
T = Trace of Precipitation, MM = Missing Value Source: NWS Daily Summary

Daily Weather History Graph

Daily Weather History Graph

Search for Another Location

Airport or City:

Trip Planner

Search our weather history database for the weather conditions in past years. The results will help you decide how hot, cold, wet, or windy it might be!

Date:

Astronomy

Oct. 04, 2011 Rise Set
Actual Time 7:22 AM EDT 7:03 PM EDT
Civil Twilight 6:56 AM EDT 7:29 PM EDT
Nautical Twilight 6:25 AM EDT 7:59 PM EDT
Astronomical Twilight 5:55 AM EDT 8:30 PM EDT
Moon 2:57 PM EDT (10/4) 12:11 AM EDT (10/4)
Length of Visible Light 12h 33m
Length of Day
11h 40m
First Quarter, 56% of the Moon is Illuminated
Oct 4
First Quarter
Oct 11
Full
Oct 19
Last Quarter
Oct 26
New
Nov 2
First Quarter

Hourly Weather History & Observations

Time (EDT) Temp. Windchill Dew Point Humidity Pressure Visibility Wind Dir Wind Speed Gust Speed Precip Events Conditions
12:51 AM 45.0 °F 42.6 °F 43.0 °F 93% 30.22 in 10.0 mi WSW 4.6 mph - N/A   Overcast
1:51 AM 46.0 °F - 44.1 °F 93% 30.21 in 10.0 mi Calm Calm - N/A   Overcast
2:40 AM 46.4 °F 45.2 °F 44.6 °F 93% 30.19 in 10.0 mi WSW 3.5 mph - N/A   Overcast
2:51 AM 46.0 °F - 44.1 °F 93% 30.21 in 10.0 mi Calm Calm - N/A   Overcast
3:51 AM 46.0 °F 44.8 °F 44.1 °F 93% 30.21 in 10.0 mi WSW 3.5 mph - N/A   Overcast
4:19 AM 46.4 °F 45.2 °F 44.6 °F 93% 30.20 in 10.0 mi West 3.5 mph - N/A   Overcast
4:51 AM 46.9 °F - 45.0 °F 93% 30.22 in 4.0 mi WNW 3.5 mph - 0.00 in   Overcast
5:11 AM 46.4 °F 45.2 °F 44.6 °F 93% 30.21 in 4.0 mi WNW 3.5 mph - 0.01 in   Overcast
5:51 AM 46.9 °F - 46.0 °F 97% 30.24 in 4.0 mi West 4.6 mph - 0.01 in   Overcast
6:12 AM 46.4 °F 44.3 °F 46.4 °F 100% 30.22 in 2.5 mi NW 4.6 mph - N/A   Overcast
6:34 AM 46.4 °F 44.3 °F 46.4 °F 100% 30.22 in 3.0 mi WNW 4.6 mph - N/A   Overcast
6:51 AM 48.0 °F - 46.9 °F 96% 30.25 in 4.0 mi WNW 5.8 mph - N/A   Overcast
7:51 AM 48.0 °F - 46.9 °F 96% 30.27 in 5.0 mi WNW 5.8 mph - N/A   Overcast
8:51 AM 48.9 °F - 46.9 °F 93% 30.28 in 6.0 mi WNW 4.6 mph - N/A   Overcast
9:51 AM 48.9 °F - 46.9 °F 93% 30.30 in 10.0 mi North 6.9 mph - N/A   Overcast
10:51 AM 48.9 °F - 48.0 °F 97% 30.33 in 3.0 mi NW 5.8 mph - N/A   Overcast
11:51 AM 50.0 °F - 48.2 °F 94% 30.32 in 7.0 mi NW 8.1 mph - N/A   Overcast
12:15 PM 51.8 °F - 48.2 °F 88% 30.32 in 8.0 mi North 6.9 mph - N/A   Overcast
12:51 PM 52.0 °F - 48.0 °F 86% 30.33 in 8.0 mi NNW 8.1 mph - N/A   Overcast
1:27 PM 51.8 °F - 48.2 °F 88% 30.31 in 7.0 mi North 9.2 mph - N/A   Overcast
1:51 PM 52.0 °F - 48.0 °F 86% 30.31 in 7.0 mi NNW 5.8 mph - N/A   Overcast
2:51 PM 54.0 °F - 48.0 °F 80% 30.30 in 7.0 mi NNW 6.9 mph - N/A   Overcast
3:51 PM 54.0 °F - 48.0 °F 80% 30.29 in 6.0 mi NW 8.1 mph - N/A   Haze
4:51 PM 53.1 °F - 48.0 °F 83% 30.29 in 6.0 mi NNW 6.9 mph - N/A   Haze
5:51 PM 52.0 °F - 48.0 °F 86% 30.30 in 6.0 mi NNW 4.6 mph - N/A   Overcast
6:28 PM 51.8 °F - 48.2 °F 88% 30.30 in 5.0 mi NNW 8.1 mph - N/A   Overcast
6:51 PM 52.0 °F - 48.0 °F 86% 30.30 in 6.0 mi North 5.8 mph - N/A   Overcast
7:51 PM 51.1 °F - 48.0 °F 89% 30.31 in 7.0 mi Calm Calm - N/A   Overcast
8:51 PM 51.1 °F - 48.0 °F 89% 30.31 in 7.0 mi NW 3.5 mph - N/A   Overcast
9:01 PM 51.8 °F - 48.2 °F 88% 30.31 in 7.0 mi Calm Calm - N/A   Overcast
9:51 PM 51.1 °F - 48.0 °F 89% 30.31 in 9.0 mi NNW 3.5 mph - N/A   Overcast
10:23 PM 50.0 °F - 46.4 °F 87% 30.31 in 10.0 mi Calm Calm - N/A   Scattered Clouds
10:51 PM 46.4 °F - 44.6 °F 93% 30.31 in 7.0 mi Calm Calm - N/A   Clear
11:51 PM 45.0 °F 43.5 °F 44.1 °F 97% 30.32 in 6.0 mi SSE 3.5 mph - N/A   Clear